Weather History for Roosevelt Roads, PR

Change the Weather History Date:

Wednesday, December 12, 2012

  Actual Average Record
Temperature  
Mean Temperature 81 °F -  
Max Temperature 84 °F 81 °F 99 °F (2007)
Min Temperature 78 °F 71 °F 69 °F (2011)
Cooling Degree Days 16    
Growing Degree Days 31 (Base 50)    
Moisture  
Dew Point 72 °F    
Average Humidity 73    
Maximum Humidity 88    
Minimum Humidity 63    
Precipitation  
Precipitation 0.02 in - - ()
Sea Level Pressure  
Sea Level Pressure 30.01 in    
Wind  
Wind Speed 12 mph (East)    
Max Wind Speed 15 mph    
Max Gust Speed 24 mph    
Visibility 10 miles    
Events Rain    
Averages and records for this station are not official NWS values.
T = Trace of Precipitation, MM = Missing Value Source: NWS Daily Summary

Daily Weather History Graph

Daily Weather History Graph

Search for Another Location

Airport:

Trip Planner

Search our weather history database for the weather conditions in past years. The results will help you decide how hot, cold, wet, or windy it might be!

Date:

Astronomy

Dec. 12, 2012 Rise Set
Actual Time 6:44 AM AST 5:48 PM AST
Civil Twilight 6:21 AM AST 6:11 PM AST
Nautical Twilight 5:54 AM AST 6:38 PM AST
Astronomical Twilight 5:27 AM AST 7:05 PM AST
Moon 5:48 AM AST (12/12) 5:18 PM AST (12/12)
Length of Visible Light 11h 50m
Length of Day
11h 03m
Waning Crescent, 1% of the Moon is Illuminated
Dec 12
Waning Crescent
Dec 13
New
Dec 20
First Quarter
Dec 28
Full
Jan 4
Last Quarter

Hourly Weather History & Observations

Time (AST) Temp. Heat Index Dew Point Humidity Pressure Visibility Wind Dir Wind Speed Gust Speed Precip Events Conditions
12:13 AM 80.6 °F 84.6 °F 71.6 °F 74% 30.01 in 10.0 mi East 15.0 mph 20.7 mph N/A   Overcast
12:53 AM 80.1 °F 83.8 °F 72.0 °F 76% 30.01 in 10.0 mi ENE 11.5 mph 20.7 mph N/A   Overcast
1:15 AM 80.6 °F 84.6 °F 71.6 °F 74% 30.01 in 10.0 mi ENE 13.8 mph 23.0 mph N/A   Mostly Cloudy
1:29 AM 80.6 °F 84.6 °F 71.6 °F 74% 30.00 in 10.0 mi ENE 12.7 mph 24.2 mph N/A   Mostly Cloudy
1:53 AM 80.1 °F 83.8 °F 72.0 °F 76% 30.00 in 10.0 mi ENE 12.7 mph 24.2 mph N/A   Mostly Cloudy
2:07 AM 80.6 °F 84.6 °F 71.6 °F 74% 30.00 in 10.0 mi East 12.7 mph 20.7 mph N/A   Mostly Cloudy
2:53 AM 80.1 °F 83.8 °F 72.0 °F 76% 29.99 in 10.0 mi ENE 13.8 mph 20.7 mph N/A   Overcast
3:53 AM 80.1 °F 83.8 °F 72.0 °F 76% 29.99 in 10.0 mi ENE 12.7 mph 20.7 mph N/A   Scattered Clouds
4:53 AM 79.0 °F - 72.0 °F 79% 29.99 in 10.0 mi East 6.9 mph - N/A   Scattered Clouds
5:20 AM 78.8 °F - 71.6 °F 78% 29.99 in 10.0 mi East 8.1 mph - N/A   Mostly Cloudy
5:28 AM 78.8 °F - 71.6 °F 78% 29.99 in 10.0 mi East 10.4 mph - N/A   Partly Cloudy
5:53 AM 79.0 °F - 72.0 °F 79% 30.00 in 10.0 mi East 6.9 mph 16.1 mph N/A   Clear
6:53 AM 79.0 °F - 71.1 °F 77% 30.02 in 10.0 mi East 8.1 mph - N/A   Clear
7:53 AM 81.0 °F 84.9 °F 71.1 °F 72% 30.04 in 10.0 mi East 10.4 mph - N/A   Mostly Cloudy
8:53 AM 82.9 °F 88.8 °F 73.0 °F 72% 30.06 in 10.0 mi East 10.4 mph - N/A   Mostly Cloudy
9:53 AM 84.9 °F 91.4 °F 73.0 °F 67% 30.06 in - East 10.4 mph - N/A   Unknown
10:53 AM 84.9 °F 91.4 °F 73.0 °F 67% 30.06 in 10.0 mi East 12.7 mph 19.6 mph N/A   Scattered Clouds
11:53 AM 84.9 °F 90.7 °F 72.0 °F 65% 30.05 in 10.0 mi East 11.5 mph - N/A   Scattered Clouds
12:53 PM 84.9 °F 90.7 °F 72.0 °F 65% 30.02 in 10.0 mi East 12.7 mph 19.6 mph N/A   Clear
1:53 PM 84.9 °F 90.1 °F 71.1 °F 63% 30.00 in 10.0 mi East 12.7 mph 19.6 mph N/A   Clear
2:53 PM 84.9 °F 90.7 °F 72.0 °F 65% 29.98 in 10.0 mi East 13.8 mph 18.4 mph N/A   Partly Cloudy
3:53 PM 84.0 °F 89.6 °F 72.0 °F 67% 29.97 in 10.0 mi East 12.7 mph 19.6 mph N/A   Clear
4:53 PM 79.0 °F - 75.0 °F 88% 29.98 in 9.0 mi ENE 8.1 mph - 0.02 in Rain Light Rain
5:53 PM 80.1 °F 84.2 °F 73.0 °F 79% 29.99 in 9.0 mi ENE 11.5 mph 20.7 mph N/A   Overcast
6:53 PM 80.1 °F 83.8 °F 72.0 °F 76% 29.99 in 10.0 mi East 13.8 mph 20.7 mph N/A   Overcast
7:53 PM 80.1 °F 83.6 °F 71.1 °F 74% 30.00 in 10.0 mi ENE 12.7 mph 19.6 mph N/A   Scattered Clouds
8:53 PM 80.1 °F 82.7 °F 68.0 °F 67% 30.02 in 10.0 mi ENE 12.7 mph 19.6 mph N/A   Partly Cloudy
9:53 PM 80.1 °F 82.7 °F 68.0 °F 67% 30.03 in 10.0 mi East 13.8 mph 21.9 mph N/A   Clear
10:53 PM 80.1 °F 82.9 °F 69.1 °F 69% 30.02 in 10.0 mi ENE 8.1 mph - N/A   Mostly Cloudy
11:53 PM 79.0 °F - 68.0 °F 69% 30.02 in 10.0 mi East 12.7 mph - N/A   Partly Cloudy